Time,TemperatureF,DewpointF,PressureIn,WindDirection,WindDirectionDegrees,WindSpeedMPH,WindSpeedGustMPH,Humidity,HourlyPrecipIn,Conditions,Clouds,dailyrainin,SoftwareType,DateUTC
2015-08-28 00:06:00,64.6,62.0,30.02,West,281,0.0,0.0,91,0.00,,,0.00,weatherlink.com 1.10,2015-08-28 04:06:00,
2015-08-28 00:21:00,64.8,62.0,30.01,West,281,0.0,0.0,91,0.00,,,0.00,weatherlink.com 1.10,2015-08-28 04:21:00,
2015-08-28 00:36:00,64.8,63.0,30.01,West,281,0.0,1.0,92,0.00,,,0.00,weatherlink.com 1.10,2015-08-28 04:36:00,
2015-08-28 00:54:00,64.5,62.0,30.01,West,281,0.0,0.0,92,0.00,,,0.00,weatherlink.com 1.10,2015-08-28 04:54:00,
2015-08-28 01:07:00,64.0,62.0,30.01,West,281,0.0,0.0,93,0.00,,,0.00,weatherlink.com 1.10,2015-08-28 05:07:00,
2015-08-28 01:22:00,63.5,62.0,30.01,West,281,0.0,0.0,94,0.00,,,0.00,weatherlink.com 1.10,2015-08-28 05:22:00,
2015-08-28 01:37:00,63.0,61.0,30.00,West,281,0.0,0.0,94,0.00,,,0.00,weatherlink.com 1.10,2015-08-28 05:37:00,
2015-08-28 01:52:00,62.6,61.0,30.01,West,281,0.0,0.0,95,0.00,,,0.00,weatherlink.com 1.10,2015-08-28 05:52:00,
2015-08-28 02:07:00,62.5,61.0,30.01,WNW,284,1.0,1.0,96,0.00,,,0.00,weatherlink.com 1.10,2015-08-28 06:07:00,
2015-08-28 02:22:00,62.5,61.0,30.00,WNW,284,0.0,1.0,95,0.00,,,0.00,weatherlink.com 1.10,2015-08-28 06:22:00,
2015-08-28 02:37:00,62.2,61.0,30.00,WNW,294,0.0,0.0,95,0.00,,,0.00,weatherlink.com 1.10,2015-08-28 06:37:00,
2015-08-28 02:52:00,62.2,61.0,30.00,WNW,293,0.0,0.0,95,0.00,,,0.00,weatherlink.com 1.10,2015-08-28 06:52:00,
2015-08-28 03:07:00,62.1,61.0,30.00,WNW,293,0.0,0.0,95,0.00,,,0.00,weatherlink.com 1.10,2015-08-28 07:07:00,
2015-08-28 03:22:00,62.1,61.0,30.00,NNW,333,0.0,1.0,95,0.00,,,0.00,weatherlink.com 1.10,2015-08-28 07:22:00,
2015-08-28 03:37:00,62.3,61.0,30.00,NNE,30,0.0,2.0,95,0.00,,,0.00,weatherlink.com 1.10,2015-08-28 07:37:00,
2015-08-28 03:52:00,62.7,61.0,30.00,NNW,329,0.0,0.0,94,0.00,,,0.00,weatherlink.com 1.10,2015-08-28 07:52:00,
2015-08-28 04:07:00,63.2,62.0,30.00,NW,323,0.0,2.0,94,0.00,,,0.00,weatherlink.com 1.10,2015-08-28 08:07:00,
2015-08-28 04:22:00,63.1,61.0,30.00,NW,323,0.0,1.0,93,0.00,,,0.00,weatherlink.com 1.10,2015-08-28 08:22:00,
2015-08-28 04:37:00,62.9,61.0,30.00,NW,323,0.0,0.0,93,0.00,,,0.00,weatherlink.com 1.10,2015-08-28 08:37:00,
2015-08-28 04:52:00,62.5,61.0,30.00,NW,323,0.0,0.0,93,0.00,,,0.00,weatherlink.com 1.10,2015-08-28 08:52:00,
2015-08-28 05:07:00,62.0,60.0,30.01,NW,323,0.0,0.0,94,0.00,,,0.00,weatherlink.com 1.10,2015-08-28 09:07:00,
2015-08-28 05:22:00,61.8,60.0,30.01,NW,323,0.0,0.0,95,0.00,,,0.00,weatherlink.com 1.10,2015-08-28 09:22:00,
2015-08-28 05:37:00,61.8,60.0,30.01,NW,323,0.0,0.0,95,0.00,,,0.00,weatherlink.com 1.10,2015-08-28 09:37:00,
2015-08-28 05:52:00,61.7,60.0,30.02,NW,323,0.0,0.0,95,0.00,,,0.00,weatherlink.com 1.10,2015-08-28 09:52:00,
2015-08-28 06:07:00,61.9,61.0,30.02,NW,323,0.0,0.0,96,0.00,,,0.00,weatherlink.com 1.10,2015-08-28 10:07:00,
2015-08-28 06:22:00,62.0,61.0,30.03,NW,323,0.0,0.0,96,0.00,,,0.00,weatherlink.com 1.10,2015-08-28 10:22:00,
2015-08-28 06:37:00,61.9,61.0,30.03,NW,323,0.0,1.0,96,0.00,,,0.00,weatherlink.com 1.10,2015-08-28 10:37:00,
2015-08-28 06:52:00,61.7,61.0,30.03,NW,323,0.0,0.0,96,0.00,,,0.00,weatherlink.com 1.10,2015-08-28 10:52:00,
2015-08-28 07:07:00,61.5,61.0,30.04,NW,323,0.0,0.0,97,0.00,,,0.00,weatherlink.com 1.10,2015-08-28 11:07:00,
2015-08-28 07:22:00,61.6,61.0,30.04,NW,323,0.0,1.0,97,0.00,,,0.00,weatherlink.com 1.10,2015-08-28 11:22:00,
2015-08-28 07:37:00,61.7,61.0,30.05,NW,323,0.0,0.0,97,0.00,,,0.00,weatherlink.com 1.10,2015-08-28 11:37:00,
2015-08-28 07:52:00,62.0,62.0,30.05,NW,323,0.0,0.0,98,0.00,,,0.00,weatherlink.com 1.10,2015-08-28 11:52:00,
2015-08-28 08:07:00,62.5,62.0,30.06,NW,323,0.0,0.0,98,0.00,,,0.00,weatherlink.com 1.10,2015-08-28 12:07:00,
2015-08-28 08:22:00,63.5,63.0,30.07,NW,323,0.0,1.0,98,0.00,,,0.00,weatherlink.com 1.10,2015-08-28 12:22:00,
2015-08-28 08:37:00,64.3,64.0,30.07,NW,323,0.0,0.0,97,0.00,,,0.00,weatherlink.com 1.10,2015-08-28 12:37:00,
2015-08-28 08:52:00,65.2,64.0,30.07,NW,323,0.0,0.0,97,0.00,,,0.00,weatherlink.com 1.10,2015-08-28 12:52:00,
2015-08-28 09:07:00,66.0,65.0,30.07,NW,323,0.0,0.0,95,0.00,,,0.00,weatherlink.com 1.10,2015-08-28 13:07:00,
2015-08-28 09:22:00,66.9,65.0,30.08,NW,323,0.0,0.0,93,0.00,,,0.00,weatherlink.com 1.10,2015-08-28 13:22:00,